TimeCST,TemperatureF,Dew PointF,Humidity,Sea Level PressureIn,VisibilityMPH,Wind Direction,Wind SpeedMPH,Gust SpeedMPH,PrecipitationIn,Events,Conditions,WindDirDegrees,DateUTC
12:46 AM,8.6,1.4,73,29.99,10.0,NW,9.2,-,N/A,,Scattered Clouds,310,2013-01-13 06:46:00
12:56 AM,9.0,-0.0,67,30.06,10.0,WNW,6.9,-,N/A,,Clear,300,2013-01-13 06:56:00
1:56 AM,7.0,-0.9,70,30.06,10.0,NW,11.5,-,N/A,,Clear,310,2013-01-13 07:56:00
2:56 AM,7.0,-0.0,73,30.06,10.0,WNW,6.9,-,N/A,,Clear,300,2013-01-13 08:56:00
3:13 AM,6.8,-0.4,72,30.01,10.0,West,6.9,-,N/A,,Mostly Cloudy,280,2013-01-13 09:13:00
3:56 AM,7.0,-0.0,73,30.05,10.0,West,6.9,-,N/A,,Overcast,280,2013-01-13 09:56:00
4:56 AM,7.0,1.0,77,30.04,10.0,West,5.8,-,N/A,,Overcast,270,2013-01-13 10:56:00
5:56 AM,7.0,1.0,77,30.07,10.0,West,5.8,-,N/A,,Overcast,280,2013-01-13 11:56:00
6:56 AM,7.0,1.9,80,30.10,9.0,WSW,6.9,-,N/A,,Overcast,250,2013-01-13 12:56:00
7:56 AM,7.0,1.9,80,30.12,9.0,West,9.2,-,N/A,,Overcast,270,2013-01-13 13:56:00
8:56 AM,8.1,1.9,76,30.14,7.0,WSW,9.2,-,N/A,,Overcast,250,2013-01-13 14:56:00
9:56 AM,9.0,3.0,77,30.13,7.0,West,8.1,-,N/A,,Overcast,270,2013-01-13 15:56:00
10:56 AM,10.0,3.9,76,30.11,6.0,WNW,9.2,-,N/A,,Haze,300,2013-01-13 16:56:00
11:54 AM,12.2,3.2,67,30.01,10.0,WNW,9.2,-,N/A,,Overcast,300,2013-01-13 17:54:00
11:56 AM,12.0,3.9,70,30.07,9.0,WNW,6.9,-,N/A,,Overcast,290,2013-01-13 17:56:00
12:15 PM,12.2,1.4,62,30.01,10.0,WNW,10.4,-,N/A,,Overcast,290,2013-01-13 18:15:00
12:56 PM,12.0,1.9,64,30.08,10.0,West,10.4,-,N/A,,Overcast,260,2013-01-13 18:56:00
1:33 PM,12.2,1.4,62,30.02,10.0,West,10.4,-,N/A,,Overcast,260,2013-01-13 19:33:00
1:56 PM,10.9,1.9,67,30.09,7.0,West,13.8,-,0.00,Snow,Light Snow,280,2013-01-13 19:56:00
2:56 PM,10.9,1.9,67,30.11,9.0,West,12.7,-,0.00,,Overcast,260,2013-01-13 20:56:00
3:56 PM,10.0,-0.0,64,30.12,6.0,WNW,11.5,20.7,0.00,Snow,Light Snow,300,2013-01-13 21:56:00
4:11 PM,8.6,1.4,73,30.06,5.0,West,15.0,20.7,0.00,Snow,Light Snow,270,2013-01-13 22:11:00
4:56 PM,8.1,-2.0,64,30.15,10.0,West,11.5,-,0.00,,Mostly Cloudy,280,2013-01-13 22:56:00
5:04 PM,8.6,-2.2,62,30.08,10.0,WNW,11.5,-,N/A,,Scattered Clouds,290,2013-01-13 23:04:00
5:56 PM,7.0,-0.9,70,30.17,10.0,West,10.4,-,N/A,,Clear,280,2013-01-13 23:56:00
6:56 PM,7.0,-0.9,70,30.19,10.0,West,9.2,-,N/A,,Overcast,270,2013-01-14 00:56:00
7:56 PM,7.0,-0.0,73,30.21,10.0,West,8.1,16.1,0.00,,Mostly Cloudy,280,2013-01-14 01:56:00
8:56 PM,6.1,-0.0,76,30.23,10.0,West,8.1,-,N/A,,Clear,270,2013-01-14 02:56:00
9:56 PM,6.1,-0.0,76,30.25,10.0,West,8.1,-,N/A,,Clear,280,2013-01-14 03:56:00
10:56 PM,5.0,-0.0,80,30.26,10.0,WSW,5.8,-,N/A,,Clear,250,2013-01-14 04:56:00
11:56 PM,5.0,-0.0,80,30.27,10.0,WSW,5.8,-,N/A,,Clear,250,2013-01-14 05:56:00